User: anonymous   Login
Location: Long Point Provincial Park
(42.5794°N, 80.4103°W)
Time: 23:19:01
(UTC-05:00)
Language:

Iridium 19 - Orbit

View from above orbital plane
View from above orbital plane
View from above satellite
View from above satellite

Ground track
Ground track

The orbit data is extracted from the following two-line orbital elements,

1 24965U 97056A   15062.17935059 -.00000433  00000-0 -16170-3 0  9996
2 24965 086.3949 308.5667 0002403 079.8505 280.2878 14.34211540912580
Epoch (UTC): 03 March 2015 04:18:15
Eccentricity: 0.0002403
inclination: 86.3949°
perigee height: 776 km
apogee height: 779 km
right ascension of ascending node: 308.5667°
argument of perigee: 79.8505°
revolutions per day: 14.34211540
mean anomaly at epoch: 280.2878°
orbit number at epoch: 91258

The dashed part of the orbit path shows where the satellite is in the earth's shadow,  

DLR